Location: Morningside
(52.5833°N, 113.6333°W)
Time: 06:32:41
(UTC+00:00)

Envisat - Visible Passes

Search period start: 05 June 2023 00:00
Search period end: 15 June 2023 00:00
Orbit: 763 x 765 km, 98.2° (Epoch: 04 June)

Date Brightness Start Highest point End Pass type
(mag) Time Alt. Az. Time Alt. Az. Time Alt. Az.
07 Jun 5.6 10:00:35 10° NE 10:03:05 14° E 10:05:35 10° ESE visible
10 Jun 5.9 09:49:23 10° ENE 09:50:27 11° E 09:51:30 10° E visible
12 Jun 5.5 10:12:14 10° NE 10:15:33 17° E 10:18:52 10° SE visible
